[Iaude] MPEC M95: 2022 MU2 [a=2.04,e=0.53,i=7.4,H=22.8]

mpec at marsden.cfa.harvard.edu mpec at marsden.cfa.harvard.edu
Tue Jun 28 16:37:58 EDT 2022


M.P.E.C. 2022-M95                                 Issued 2022 June 28, 20:36 UT

     The Minor Planet Electronic Circulars contain information on unusual
         minor planets and routine data on comets.  They are published
    on behalf of Division F of the International Astronomical Union by the
          Minor Planet Center, Smithsonian Astrophysical Observatory,
                          Cambridge, MA 02138, U.S.A.

             Prepared using the Tamkin Foundation Computer Network

                              MPC at CFA.HARVARD.EDU
            URL https://www.minorplanetcenter.net/    ISSN 1523-6714

                                    2022 MU2                                    


Observations:
     K22M02U* C2022 06 26.30250218 04 01.993+16 32 17.52         21.42wUEM095F52
     K22M02U  C2022 06 26.31523418 04 01.844+16 32 53.61         21.46wUEM095F52
     K22M02U  C2022 06 26.32792818 04 01.698+16 33 29.91         22.07wUEM095F52
     K22M02U !C2022 06 27.07259 18 03 59.73 +17 08 44.2          20.8 GVEM095J04
     K22M02U !C2022 06 27.09321 18 03 59.43 +17 09 42.5          21.1 GVEM095J04
     K22M02U KC2022 06 27.26483118 03 59.89 +17 17 51.5          21.0 VuEM095H21
     K22M02U KC2022 06 27.27042418 03 59.82 +17 18 07.7          21.2 VuEM095H21
     K22M02U KC2022 06 27.27601718 03 59.76 +17 18 23.4          21.1 VuEM095H21
     K22M02U ^C2022 06 27.28012318 04 02.309+17 18 44.47         21.01GVEM095568
     K22M02U ^C2022 06 27.28112718 04 02.299+17 18 47.43         20.98GVEM095568
     K22M02U ^C2022 06 27.28211918 04 02.289+17 18 50.42         21.00GVEM095568
     K22M02U KC2022 06 28.15032718 04 01.99 +18 01 04.7          21.6 VuEM095H21
     K22M02U KC2022 06 28.15666418 04 01.91 +18 01 23.5                uEM095H21
     K22M02U KC2022 06 28.16235218 04 01.87 +18 01 40.8          21.8 VuEM095H21
     K22M02U  C2022 06 28.29611618 04 01.186+18 08 24.08         21.1 GVEM095654
     K22M02U  C2022 06 28.30737718 04 01.033+18 08 57.74         21.1 GVEM095654
     K22M02U  C2022 06 28.36597918 04 00.250+18 11 52.23         21.4 GVEM095654
     K22M02U  C2022 06 28.39937918 03 59.839+18 13 31.29         20.9 GVEM095654

Observer details:
568 Mauna Kea.  Observers R. Wainscoat, L. Wells, H. Flewelling.  Measurers R.
    Weryk, R. Wainscoat.  3.6-m Canada-France-Hawaii Telescope + CCD.
654 Table Mountain Observatory, Wrightwood-PHMC.  Observers N. Evans, P. Choi,
    N. Saini, C. Zhai, R. Trahan, M. Shao.  1.0-m Reflector + CCD.
F52 Pan-STARRS 2, Haleakala.  Observers J. Bulger, T. Lowe, A. Schultz, I.
    Smith.  Measurers K. Chambers, S. Chastel, T. de Boer, J. Fairlamb, H.
    Gao, M. Huber, C.-C. Lin, E. Magnier, Y. Ramanjooloo, R. Wainscoat, R.
    Weryk.  1.8-m Ritchey-Chretien + CCD.
H21 Astronomical Research Observatory, Westfield.  Observer R. Holmes.
    Measurers T. Linder, R. Holmes, L. Horn.  0.76-m f/3.0 astrograph + CCD.
J04 ESA Optical Ground Station, Tenerife.  Observers P. Ruiz, M. Micheli, D.
    Fohring, L. Conversi, D. Koschny.  Measurers R. Kresken, M. Micheli, A.
    Knofel, M. Busch, E. Schwab.  1.0-m f/4.4 reflector + CCD.

Orbital elements:
2022 MU2                                                 Earth MOID = 0.0406 AU
Epoch 2022 Aug. 9.0 TT = JDT 2459800.5                  Veres                   
M 354.57823              (2000.0)            P               Q                  
n   0.33902164     Peri.  172.92937     +0.94027960     +0.33917863             
a   2.0369691      Node   167.13036     -0.31831239     +0.90612711             
e   0.5317119      Incl.    7.44138     -0.12062955     +0.25276770             
P   2.91           H   22.83          G   0.15           U   8                  
Residuals in seconds of arc
220626 F52  0.0   0.1+    220627 H21  0.2-  0.2+    220628 H21  1.8+  0.9-
220626 F52  0.0   0.1-    220627 H21  0.0   0.2-    220628 H21  2.1+  0.6-
220626 F52  0.1+  0.0     220627 568  0.0   0.0     220628 654  0.0   0.1+
220627 J04  0.0   0.2+    220627 568  0.0   0.0     220628 654  0.0   0.0
220627 J04  0.1-  0.5-    220627 568  0.0   0.1+    220628 654  0.1+  0.0
220627 H21  0.2-  0.2+    220628 H21  1.9+  0.6-    220628 654  0.0   0.0

Ephemeris:
2022 MU2                 a,e,i = 2.04, 0.53, 7                   q = 0.9539
Date    TT    R. A. (2000) Decl.     Delta      r    Elong.  Phase     V
2022 05 29    18 00 51.2 +00 35 15   0.4476  1.4110   147.3    22.8    22.9
...
2022 06 13    18 03 48.8 +07 46 45   0.3222  1.2989   147.5    24.8    22.1
...
2022 06 21    18 04 02.8 +12 41 29   0.2660  1.2409   143.8    28.9    21.7
...
2022 06 27    18 04 00.3 +17 05 21   0.2280  1.1988   139.3    33.5    21.4
2022 06 28    18 04 00.7 +17 53 53   0.2220  1.1919   138.4    34.5    21.4
2022 06 29    18 04 01.8 +18 43 57   0.2161  1.1851   137.5    35.4    21.3
...
2022 07 05    18 04 33.9 +24 22 50   0.1825  1.1452   131.2    41.9    21.1
...
2022 07 13    18 07 50.3 +34 28 29   0.1423  1.0957   120.5    53.1    20.7
...
2022 07 28    19 03 01.0 +70 34 02   0.08908 1.0180    89.1    85.9    20.6

M. P. C. Staff               (C) Copyright 2022 MPC           M.P.E.C. 2022-M95




More information about the Iaude mailing list